Вернуться в каталог

H-2A R/B

АктивенHEO
NORAD 32501·ROCKET BODY·🇯🇵 Japan

Запущен Feb 23, 2008 с Tanegashima Space Center

Loading…

Ближайшие Пролёты (ближайшие 24 часа)

TLE

СвежийSource: Space-Track

Эпоха: Sep 14, 2026, 13:15 UTC

1 32501U 08007B   26257.55254524  .00004530  00000-0  17602-2 0  9990
2 32501  28.2004 240.1251 6737514 327.3936   4.7733  2.97223311178459

Отслеживайте H-2A R/B в реальном времени с AllMySat

Download on the App Store